﻿"﻿最低氣溫 (攝氏度) - �N�x�D"
"Minimum Temperature (°C) - Tseung Kwan O"
年/Year,月/Month,日/Day,數值/Value,"數據完整性/data Completeness"
1991,12,1,16.1,C
1991,12,2,17.5,C
1991,12,3,17.0,C
1991,12,4,17.5,C
1991,12,5,16.7,#
1991,12,6,16.2,C
1991,12,7,19.0,C
1991,12,8,19.4,C
1991,12,9,18.2,#
1991,12,10,***,#
1991,12,11,19.7,#
1991,12,12,17.0,#
1991,12,13,14.7,C
1991,12,14,15.2,C
1991,12,15,17.5,C
1991,12,16,17.1,C
1991,12,17,17.7,C
1991,12,18,17.2,C
1991,12,19,16.5,#
1991,12,20,13.8,C
1991,12,21,15.2,C
1991,12,22,17.5,C
1991,12,23,18.4,C
1991,12,24,18.7,C
1991,12,25,18.8,C
1991,12,26,18.4,C
1991,12,27,8.7,C
1991,12,28,4.1,C
1991,12,29,4.0,C
1991,12,30,7.7,#
1991,12,31,11.5,C
1992,1,1,14.8,C
1992,1,2,14.9,C
1992,1,3,16.1,C
1992,1,4,15.6,C
1992,1,5,14.0,C
1992,1,6,14.1,C
1992,1,7,12.9,C
1992,1,8,13.1,#
1992,1,9,10.9,#
1992,1,10,11.9,C
1992,1,11,12.9,C
1992,1,12,14.0,C
1992,1,13,11.9,#
1992,1,14,9.3,C
1992,1,15,7.2,C
1992,1,16,8.4,#
1992,1,17,9.4,C
1992,1,18,11.1,C
1992,1,19,11.1,C
1992,1,20,11.4,#
1992,1,21,9.3,C
1992,1,22,9.9,#
1992,1,23,11.5,#
1992,1,24,12.4,#
1992,1,25,12.8,C
1992,1,26,13.6,C
1992,1,27,12.6,#
1992,1,28,14.5,#
1992,1,29,17.2,C
1992,1,30,17.8,#
1992,1,31,12.9,C
1992,2,1,12.1,C
1992,2,2,13.8,C
1992,2,3,15.6,#
1992,2,4,16.9,C
1992,2,5,14.3,C
1992,2,6,12.7,C
1992,2,7,11.1,C
1992,2,8,11.0,C
1992,2,9,12.7,C
1992,2,10,12.1,#
1992,2,11,11.2,#
1992,2,12,10.9,#
1992,2,13,11.0,C
1992,2,14,12.8,C
1992,2,15,13.6,C
1992,2,16,13.2,C
1992,2,17,12.0,C
1992,2,18,13.8,C
1992,2,19,13.1,#
1992,2,20,11.1,#
1992,2,21,11.3,#
1992,2,22,11.8,#
1992,2,23,11.6,#
1992,2,24,13.6,#
1992,2,25,11.8,C
1992,2,26,12.9,C
1992,2,27,14.8,C
1992,2,28,18.1,C
1992,2,29,19.4,C
1992,3,1,17.2,#
1992,3,2,17.5,C
1992,3,3,16.3,#
1992,3,4,14.2,#
1992,3,5,11.8,#
1992,3,6,8.8,#
1992,3,7,9.2,C
1992,3,8,10.8,C
1992,3,9,13.3,#
1992,3,10,15.3,C
1992,3,11,15.3,#
1992,3,12,16.7,C
1992,3,13,17.4,C
1992,3,14,17.9,#
1992,3,15,19.3,C
1992,3,16,21.5,C
1992,3,17,17.4,#
1992,3,18,17.0,#
1992,3,19,16.4,#
1992,3,20,16.9,#
1992,3,21,17.1,C
1992,3,22,16.5,C
1992,3,23,17.0,C
1992,3,24,17.8,C
1992,3,25,18.2,#
1992,3,26,16.5,#
1992,3,27,15.3,C
1992,3,28,14.1,C
1992,3,29,13.5,C
1992,3,30,14.2,C
1992,3,31,16.7,#
1992,4,1,19.3,C
1992,4,2,17.5,C
1992,4,3,16.7,#
1992,4,4,17.7,C
1992,4,5,18.3,#
1992,4,6,18.4,#
1992,4,7,18.3,#
1992,4,8,17.4,C
1992,4,9,18.5,#
1992,4,10,20.0,#
1992,4,11,17.8,C
1992,4,12,16.9,C
1992,4,13,17.4,#
1992,4,14,16.8,C
1992,4,15,16.5,C
1992,4,16,17.0,C
1992,4,17,18.0,C
1992,4,18,19.8,#
1992,4,19,23.3,C
1992,4,20,19.9,C
1992,4,21,21.0,#
1992,4,22,21.8,C
1992,4,23,19.6,#
1992,4,24,21.3,#
1992,4,25,22.5,C
1992,4,26,21.3,C
1992,4,27,22.4,C
1992,4,28,22.4,#
1992,4,29,24.5,#
1992,4,30,24.8,#
1992,5,1,24.8,C
1992,5,2,25.1,C
1992,5,3,23.0,C
1992,5,4,22.7,#
1992,5,5,23.4,C
1992,5,6,24.0,C
1992,5,7,22.8,C
1992,5,8,21.8,#
1992,5,9,22.4,C
1992,5,10,19.6,#
1992,5,11,20.3,#
1992,5,12,21.2,#
1992,5,13,20.5,#
1992,5,14,22.9,C
1992,5,15,21.9,#
1992,5,16,21.9,C
1992,5,17,23.7,C
1992,5,18,22.9,#
1992,5,19,21.8,C
1992,5,20,22.5,#
1992,5,21,22.7,#
1992,5,22,23.0,C
1992,5,23,22.8,C
1992,5,24,22.5,C
1992,5,25,23.6,C
1992,5,26,23.8,C
1992,5,27,23.0,C
1992,5,28,23.4,C
1992,5,29,24.0,C
1992,5,30,24.0,C
1992,5,31,24.1,C
1992,6,1,24.3,C
1992,6,2,24.3,#
1992,6,3,25.2,#
1992,6,4,25.5,#
1992,6,5,25.5,C
1992,6,6,25.5,C
1992,6,7,22.5,C
1992,6,8,22.1,C
1992,6,9,22.7,C
1992,6,10,23.8,#
1992,6,11,23.4,#
1992,6,12,23.7,#
1992,6,13,23.9,#
1992,6,14,24.9,C
1992,6,15,24.8,#
1992,6,16,24.8,#
1992,6,17,26.8,C
1992,6,18,26.6,#
1992,6,19,26.1,#
1992,6,20,26.0,C
1992,6,21,25.8,C
1992,6,22,26.6,#
1992,6,23,28.1,#
1992,6,24,27.6,#
1992,6,25,27.5,#
1992,6,26,28.1,C
1992,6,27,27.5,C
1992,6,28,25.5,#
1992,6,29,25.8,C
1992,6,30,26.0,#
1992,7,1,27.2,#
1992,7,2,27.5,#
1992,7,3,28.2,C
1992,7,4,27.9,C
1992,7,5,29.2,#
1992,7,6,***,#
1992,7,7,***,#
1992,7,8,***,#
1992,7,9,***,#
1992,7,10,***,#
1992,7,11,***,#
1992,7,12,***,#
1992,7,13,***,#
1992,7,14,***,#
1992,7,15,***,#
1992,7,16,***,#
1992,7,17,***,#
1992,7,18,***,#
1992,7,19,***,#
1992,7,20,***,#
1992,7,21,***,#
1992,7,22,***,#
1992,7,23,***,#
1992,7,24,***,#
1992,7,25,***,#
1992,7,26,***,#
1992,7,27,***,#
1992,7,28,***,#
1992,7,29,***,#
1992,7,30,***,#
1992,7,31,***,#
1992,8,1,***,#
1992,8,2,***,#
1992,8,3,28.3,#
1992,8,4,28.1,#
1992,8,5,***,#
1992,8,6,***,#
1992,8,7,***,#
1992,8,8,***,#
1992,8,9,***,#
1992,8,10,***,#
1992,8,11,***,#
1992,8,12,***,#
1992,8,13,***,#
1992,8,14,***,#
1992,8,15,***,#
1992,8,16,***,#
1992,8,17,***,#
1992,8,18,***,#
1992,8,19,***,#
1992,8,20,***,#
1992,8,21,***,#
1992,8,22,***,#
1992,8,23,***,#
1992,8,24,***,#
1992,8,25,***,#
1992,8,26,***,#
1992,8,27,***,#
1992,8,28,***,#
1992,8,29,***,#
1992,8,30,***,#
1992,8,31,***,#
1992,9,1,***,#
1992,9,2,***,#
1992,9,3,***,#
1992,9,4,***,#
1992,9,5,***,#
1992,9,6,***,#
1992,9,7,***,#
1992,9,8,***,#
1992,9,9,***,#
1992,9,10,***,#
1992,9,11,***,#
1992,9,12,***,#
1992,9,13,***,#
1992,9,14,***,#
1992,9,15,***,#
1992,9,16,***,#
1992,9,17,***,#
1992,9,18,***,#
1992,9,19,***,#
1992,9,20,***,#
1992,9,21,***,#
1992,9,22,***,#
1992,9,23,***,#
1992,9,24,***,#
1992,9,25,***,#
1992,9,26,***,#
1992,9,27,***,#
1992,9,28,***,#
1992,9,29,***,#
1992,9,30,***,#
1992,10,1,***,#
1992,10,2,***,#
1992,10,3,***,#
1992,10,4,***,#
1992,10,5,***,#
1992,10,6,***,#
1992,10,7,***,#
1992,10,8,***,#
1992,10,9,***,#
1992,10,10,***,#
1992,10,11,***,#
1992,10,12,***,#
1992,10,13,***,#
1992,10,14,***,#
1992,10,15,***,#
1992,10,16,***,#
1992,10,17,***,#
1992,10,18,***,#
1992,10,19,***,#
1992,10,20,***,#
1992,10,21,***,#
1992,10,22,***,#
1992,10,23,***,#
1992,10,24,***,#
1992,10,25,***,#
1992,10,26,***,#
1992,10,27,***,#
1992,10,28,***,#
1992,10,29,***,#
1992,10,30,***,#
1992,10,31,***,#
1992,11,1,***,#
1992,11,2,***,#
1992,11,3,***,#
1992,11,4,***,#
1992,11,5,***,#
1992,11,6,***,#
1992,11,7,***,#
1992,11,8,***,#
1992,11,9,***,#
1992,11,10,***,#
1992,11,11,***,#
1992,11,12,***,#
1992,11,13,***,#
1992,11,14,***,#
1992,11,15,***,#
1992,11,16,20.3,#
1992,11,17,17.9,C
1992,11,18,20.1,C
1992,11,19,20.7,C
1992,11,20,15.0,C
1992,11,21,13.0,C
1992,11,22,15.9,C
1992,11,23,16.8,#
1992,11,24,16.8,#
1992,11,25,16.6,#
1992,11,26,17.6,#
1992,11,27,15.6,C
1992,11,28,14.9,C
1992,11,29,14.7,C
1992,11,30,16.0,C
1992,12,1,16.6,C
1992,12,2,16.8,C
1992,12,3,17.9,C
1992,12,4,17.1,C
1992,12,5,18.5,C
1992,12,6,19.2,C
1992,12,7,19.1,#
1992,12,8,19.6,#
1992,12,9,19.0,C
1992,12,10,18.5,C
1992,12,11,18.3,#
1992,12,12,18.0,C
1992,12,13,18.9,C
1992,12,14,12.3,#
1992,12,15,11.0,#
1992,12,16,10.0,#
1992,12,17,13.8,#
1992,12,18,15.5,C
1992,12,19,16.9,C
1992,12,20,17.6,C
1992,12,21,18.9,#
1992,12,22,18.6,C
1992,12,23,12.7,C
1992,12,24,11.3,C
1992,12,25,15.0,C
1992,12,26,16.3,C
1992,12,27,18.2,C
1992,12,28,19.4,C
1992,12,29,17.0,#
1992,12,30,17.0,C
1992,12,31,14.7,C
1993,1,1,14.4,C
1993,1,2,13.9,C
1993,1,3,15.7,C
1993,1,4,16.7,C
1993,1,5,16.4,#
1993,1,6,17.2,#
1993,1,7,18.6,#
1993,1,8,18.2,#
1993,1,9,17.0,C
1993,1,10,16.7,#
1993,1,11,18.2,#
1993,1,12,17.4,#
1993,1,13,17.8,C
1993,1,14,13.7,#
1993,1,15,6.0,C
1993,1,16,5.1,C
1993,1,17,6.0,C
1993,1,18,5.2,C
1993,1,19,6.8,C
1993,1,20,9.9,C
1993,1,21,8.4,#
1993,1,22,9.8,C
1993,1,23,7.5,C
1993,1,24,6.8,C
1993,1,25,7.3,C
1993,1,26,9.5,C
1993,1,27,11.2,#
1993,1,28,7.9,C
1993,1,29,7.9,#
1993,1,30,9.8,C
1993,1,31,10.9,#
1993,2,1,11.4,C
1993,2,2,12.3,C
1993,2,3,13.1,C
1993,2,4,13.2,C
1993,2,5,14.0,C
1993,2,6,16.4,C
1993,2,7,15.7,C
1993,2,8,15.5,C
1993,2,9,16.2,C
1993,2,10,16.1,#
1993,2,11,15.0,C
1993,2,12,16.9,C
1993,2,13,14.7,C
1993,2,14,16.3,C
1993,2,15,17.3,#
1993,2,16,17.8,C
1993,2,17,15.9,#
1993,2,18,17.5,C
1993,2,19,18.2,C
1993,2,20,18.1,C
1993,2,21,19.0,#
1993,2,22,17.0,C
1993,2,23,14.0,C
1993,2,24,14.9,C
1993,2,25,13.9,#
1993,2,26,13.9,C
1993,2,27,16.7,C
1993,2,28,14.1,C
1993,3,1,12.3,C
1993,3,2,13.5,#
1993,3,3,15.4,#
1993,3,4,14.3,#
1993,3,5,16.7,#
1993,3,6,18.2,C
1993,3,7,18.9,C
1993,3,8,17.0,C
1993,3,9,17.0,C
1993,3,10,17.6,#
1993,3,11,17.0,C
1993,3,12,18.4,C
1993,3,13,16.7,C
1993,3,14,17.5,C
1993,3,15,20.6,C
1993,3,16,17.9,C
1993,3,17,14.0,C
1993,3,18,12.2,C
1993,3,19,11.0,#
1993,3,20,11.9,#
1993,3,21,13.7,C
1993,3,22,17.1,C
1993,3,23,18.7,C
1993,3,24,19.8,C
1993,3,25,22.2,C
1993,3,26,22.3,C
1993,3,27,22.3,C
1993,3,28,23.1,C
1993,3,29,16.2,C
1993,3,30,16.1,C
1993,3,31,17.1,C
1993,4,1,19.3,C
1993,4,2,22.5,#
1993,4,3,22.7,C
1993,4,4,22.0,#
1993,4,5,18.0,C
1993,4,6,16.5,C
1993,4,7,13.5,C
1993,4,8,14.2,C
1993,4,9,15.5,C
1993,4,10,17.0,C
1993,4,11,18.3,C
1993,4,12,17.7,C
1993,4,13,17.4,C
1993,4,14,18.4,C
1993,4,15,19.6,C
1993,4,16,19.3,C
1993,4,17,20.4,C
1993,4,18,19.0,#
1993,4,19,19.6,C
1993,4,20,20.7,#
1993,4,21,20.3,C
1993,4,22,20.2,C
1993,4,23,23.2,C
1993,4,24,25.4,C
1993,4,25,19.9,C
1993,4,26,19.2,C
1993,4,27,20.6,C
1993,4,28,24.3,C
1993,4,29,21.5,C
1993,4,30,20.5,C
1993,5,1,22.1,#
1993,5,2,22.4,C
1993,5,3,21.5,C
1993,5,4,20.2,C
1993,5,5,20.8,C
1993,5,6,23.0,C
1993,5,7,23.9,#
1993,5,8,25.0,C
1993,5,9,21.8,C
1993,5,10,21.9,C
1993,5,11,22.9,#
1993,5,12,23.9,C
1993,5,13,24.9,C
1993,5,14,25.6,#
1993,5,15,24.6,C
1993,5,16,24.1,C
1993,5,17,24.6,#
1993,5,18,25.0,C
1993,5,19,24.7,#
1993,5,20,24.7,C
1993,5,21,25.5,C
1993,5,22,25.9,#
1993,5,23,24.1,#
1993,5,24,23.5,C
1993,5,25,23.9,#
1993,5,26,23.9,#
1993,5,27,24.4,#
1993,5,28,23.9,#
1993,5,29,21.8,C
1993,5,30,22.4,C
1993,5,31,26.2,C
1993,6,1,28.3,C
1993,6,2,25.3,C
1993,6,3,23.8,#
1993,6,4,23.8,C
1993,6,5,27.4,C
1993,6,6,26.1,C
1993,6,7,26.1,#
1993,6,8,27.2,C
1993,6,9,25.0,#
1993,6,10,24.7,C
1993,6,11,24.7,#
1993,6,12,25.7,C
1993,6,13,27.0,C
1993,6,14,27.8,C
1993,6,15,27.9,#
1993,6,16,23.6,#
1993,6,17,25.0,#
1993,6,18,26.4,#
1993,6,19,26.4,C
1993,6,20,27.0,C
1993,6,21,26.9,C
1993,6,22,26.9,#
1993,6,23,27.2,C
1993,6,24,27.0,C
1993,6,25,27.0,#
1993,6,26,26.6,C
1993,6,27,25.3,C
1993,6,28,24.3,#
1993,6,29,24.3,#
1993,6,30,27.4,#
1993,7,1,27.8,#
1993,7,2,27.4,C
1993,7,3,27.4,C
1993,7,4,28.3,C
1993,7,5,28.2,C
1993,7,6,27.6,C
1993,7,7,27.8,C
1993,7,8,27.9,#
1993,7,9,27.1,C
1993,7,10,25.4,#
1993,7,11,25.4,C
1993,7,12,26.2,C
1993,7,13,24.4,#
1993,7,14,24.4,C
1993,7,15,27.3,C
1993,7,16,27.2,#
1993,7,17,28.4,#
1993,7,18,28.2,#
1993,7,19,28.8,#
1993,7,20,28.9,C
1993,7,21,27.2,C
1993,7,22,26.1,C
1993,7,23,27.3,#
1993,7,24,27.8,C
1993,7,25,28.4,#
1993,7,26,29.0,C
1993,7,27,28.9,C
1993,7,28,29.0,#
1993,7,29,29.1,C
1993,7,30,27.6,#
1993,7,31,***,#
1993,8,1,***,#
1993,8,2,***,#
1993,8,3,***,#
1993,8,4,27.7,#
1993,8,5,27.5,#
1993,8,6,28.5,#
1993,8,7,28.8,#
1993,8,8,26.3,C
1993,8,9,28.7,C
1993,8,10,26.4,C
1993,8,11,27.2,#
1993,8,12,27.0,C
1993,8,13,27.1,C
1993,8,14,26.8,C
1993,8,15,26.3,#
1993,8,16,26.0,#
1993,8,17,25.9,#
1993,8,18,26.7,C
1993,8,19,27.3,#
1993,8,20,25.7,C
1993,8,21,25.7,C
1993,8,22,26.4,#
1993,8,23,25.8,#
1993,8,24,24.6,C
1993,8,25,25.9,C
1993,8,26,26.6,C
1993,8,27,26.5,C
1993,8,28,27.9,C
1993,8,29,27.5,C
1993,8,30,27.1,#
1993,8,31,26.4,C
1993,9,1,26.4,C
1993,9,2,25.9,#
1993,9,3,25.7,C
1993,9,4,25.5,C
1993,9,5,26.7,C
1993,9,6,26.7,C
1993,9,7,26.5,C
1993,9,8,26.3,C
1993,9,9,26.4,C
1993,9,10,26.1,C
1993,9,11,25.5,C
1993,9,12,25.7,#
1993,9,13,27.1,#
1993,9,14,26.6,#
1993,9,15,25.9,#
1993,9,16,26.4,#
1993,9,17,24.6,C
1993,9,18,26.0,#
1993,9,19,27.0,C
1993,9,20,25.9,#
1993,9,21,26.4,C
1993,9,22,26.9,#
1993,9,23,24.4,#
1993,9,24,24.6,#
1993,9,25,23.7,C
1993,9,26,23.2,C
1993,9,27,24.5,C
1993,9,28,24.8,#
1993,9,29,24.7,#
1993,9,30,24.2,#
1993,10,1,22.7,C
1993,10,2,23.3,C
1993,10,3,22.8,C
1993,10,4,22.7,C
1993,10,5,24.1,C
1993,10,6,23.4,C
1993,10,7,23.1,#
1993,10,8,21.7,C
1993,10,9,21.5,#
1993,10,10,22.4,C
1993,10,11,23.5,C
1993,10,12,23.7,#
1993,10,13,23.8,#
1993,10,14,23.9,#
1993,10,15,24.4,C
1993,10,16,24.3,C
1993,10,17,24.8,C
1993,10,18,23.5,C
1993,10,19,21.0,#
1993,10,20,21.8,#
1993,10,21,22.6,C
1993,10,22,22.5,#
1993,10,23,21.3,C
1993,10,24,23.4,#
1993,10,25,23.7,C
1993,10,26,23.4,C
1993,10,27,23.8,C
1993,10,28,23.4,C
1993,10,29,21.6,C
1993,10,30,19.1,C
1993,10,31,17.5,C
1993,11,1,17.4,C
1993,11,2,18.0,C
1993,11,3,20.1,#
1993,11,4,22.5,#
1993,11,5,23.2,C
1993,11,6,23.5,C
1993,11,7,23.2,C
1993,11,8,24.3,#
1993,11,9,23.8,C
1993,11,10,23.5,C
1993,11,11,22.9,C
1993,11,12,22.3,C
1993,11,13,18.9,C
1993,11,14,20.1,C
1993,11,15,21.5,C
1993,11,16,22.5,C
1993,11,17,22.8,C
1993,11,18,21.6,C
1993,11,19,21.2,C
1993,11,20,22.7,C
1993,11,21,12.3,C
1993,11,22,10.9,C
1993,11,23,15.8,C
1993,11,24,12.5,C
1993,11,25,14.0,#
1993,11,26,16.1,C
1993,11,27,17.2,C
1993,11,28,18.1,C
1993,11,29,18.8,C
1993,11,30,20.5,C
1993,12,1,20.5,C
1993,12,2,21.2,C
1993,12,3,21.2,#
1993,12,4,16.6,C
1993,12,5,13.9,C
1993,12,6,13.8,C
1993,12,7,13.7,C
1993,12,8,15.7,C
1993,12,9,19.1,C
1993,12,10,19.0,C
1993,12,11,17.5,C
1993,12,12,18.2,C
1993,12,13,16.9,#
1993,12,14,11.9,C
1993,12,15,10.8,#
1993,12,16,11.2,C
1993,12,17,8.8,#
1993,12,18,10.4,C
1993,12,19,12.3,C
1993,12,20,14.4,#
1993,12,21,12.0,#
1993,12,22,10.2,#
1993,12,23,10.0,#
1993,12,24,11.6,C
1993,12,25,13.5,#
1993,12,26,11.8,C
1993,12,27,13.0,C
1993,12,28,13.7,#
1993,12,29,13.9,C
1993,12,30,17.0,#
1993,12,31,16.5,C
1994,1,1,14.4,C
1994,1,2,15.2,C
1994,1,3,17.9,C
1994,1,4,17.1,C
1994,1,5,17.5,C
1994,1,6,17.0,C
1994,1,7,17.9,#
1994,1,8,17.9,C
1994,1,9,16.7,C
1994,1,10,17.5,C
1994,1,11,17.5,C
1994,1,12,17.3,C
1994,1,13,14.8,C
1994,1,14,11.8,C
1994,1,15,12.8,C
1994,1,16,16.6,C
1994,1,17,19.0,C
1994,1,18,13.7,C
1994,1,19,12.6,C
1994,1,20,9.2,C
1994,1,21,7.2,C
1994,1,22,9.9,C
1994,1,23,9.5,#
1994,1,24,12.3,C
1994,1,25,12.3,#
1994,1,26,13.9,#
1994,1,27,15.1,C
1994,1,28,13.0,C
1994,1,29,15.5,C
1994,1,30,14.7,#
1994,1,31,15.4,C
1994,2,1,19.3,#
1994,2,2,15.0,C
1994,2,3,15.0,C
1994,2,4,16.0,#
1994,2,5,18.6,C
1994,2,6,18.7,C
1994,2,7,17.7,C
1994,2,8,17.5,C
1994,2,9,17.5,C
1994,2,10,15.0,C
1994,2,11,16.4,C
1994,2,12,16.6,C
1994,2,13,14.9,#
1994,2,14,15.5,C
1994,2,15,18.0,C
1994,2,16,15.7,#
1994,2,17,15.0,C
1994,2,18,14.9,C
1994,2,19,15.8,C
1994,2,20,13.5,C
1994,2,21,12.8,#
1994,2,22,16.4,C
1994,2,23,17.5,#
1994,2,24,14.5,C
1994,2,25,11.8,C
1994,2,26,12.5,C
1994,2,27,10.9,C
1994,2,28,10.7,C
1994,3,1,10.9,C
1994,3,2,11.5,C
1994,3,3,12.0,C
1994,3,4,13.8,#
1994,3,5,15.7,C
1994,3,6,17.6,C
1994,3,7,19.4,C
1994,3,8,19.9,C
1994,3,9,17.5,#
1994,3,10,14.4,#
1994,3,11,15.2,#
1994,3,12,16.8,#
1994,3,13,13.2,#
1994,3,14,12.4,C
1994,3,15,12.0,C
1994,3,16,15.0,#
1994,3,17,16.1,C
1994,3,18,15.2,#
1994,3,19,14.2,C
1994,3,20,13.8,C
1994,3,21,17.0,C
1994,3,22,16.1,C
1994,3,23,16.0,#
1994,3,24,16.9,#
1994,3,25,16.6,#
1994,3,26,17.1,C
1994,3,27,16.3,#
1994,3,28,17.2,#
1994,3,29,19.5,#
1994,3,30,18.7,#
1994,3,31,19.2,#
1994,4,1,19.0,#
1994,4,2,19.8,#
1994,4,3,21.1,#
1994,4,4,20.3,#
1994,4,5,21.0,#
1994,4,6,21.8,#
1994,4,7,22.3,#
1994,4,8,22.9,#
1994,4,9,21.4,C
1994,4,10,20.6,C
1994,4,11,21.4,C
1994,4,12,21.9,#
1994,4,13,17.3,C
1994,4,14,17.8,C
1994,4,15,19.4,C
1994,4,16,21.9,C
1994,4,17,22.2,#
1994,4,18,23.5,C
1994,4,19,24.3,C
1994,4,20,25.1,#
1994,4,21,24.3,#
1994,4,22,24.0,#
1994,4,23,24.9,#
1994,4,24,25.8,C
1994,4,25,26.9,#
1994,4,26,27.2,#
1994,4,27,26.7,#
1994,4,28,27.0,#
1994,4,29,23.9,#
1994,4,30,23.9,C
1994,5,1,24.9,C
1994,5,2,26.3,C
1994,5,3,23.2,C
1994,5,4,20.9,C
1994,5,5,21.1,#
1994,5,6,21.6,C
1994,5,7,22.0,C
1994,5,8,21.9,C
1994,5,9,24.3,#
1994,5,10,24.8,#
1994,5,11,26.4,C
1994,5,12,25.8,C
1994,5,13,26.3,#
1994,5,14,27.3,C
1994,5,15,26.6,C
1994,5,16,26.4,#
1994,5,17,25.9,C
1994,5,18,25.3,C
1994,5,19,24.5,C
1994,5,20,24.5,C
1994,5,21,25.0,#
1994,5,22,24.9,C
1994,5,23,25.4,#
1994,5,24,26.3,#
1994,5,25,26.7,C
1994,5,26,27.1,C
1994,5,27,25.7,C
1994,5,28,24.1,C
1994,5,29,25.0,C
1994,5,30,25.8,#
1994,5,31,23.9,C
1994,6,1,25.0,#
1994,6,2,25.1,C
1994,6,3,24.5,#
1994,6,4,24.6,C
1994,6,5,25.7,C
1994,6,6,26.7,#
1994,6,7,25.8,#
1994,6,8,24.8,C
1994,6,9,25.7,#
1994,6,10,25.9,C
1994,6,11,26.3,#
1994,6,12,26.7,#
1994,6,13,27.2,C
1994,6,14,27.5,C
1994,6,15,27.6,C
1994,6,16,27.6,#
1994,6,17,27.7,C
1994,6,18,23.7,C
1994,6,19,23.8,C
1994,6,20,24.9,#
1994,6,21,25.0,C
1994,6,22,25.8,#
1994,6,23,26.8,#
1994,6,24,26.7,#
1994,6,25,25.7,C
1994,6,26,26.3,C
1994,6,27,26.9,#
1994,6,28,***,#
1994,6,29,27.1,#
1994,6,30,26.3,#
1994,7,1,27.7,C
1994,7,2,28.8,#
1994,7,3,26.6,C
1994,7,4,24.8,C
1994,7,5,25.2,C
1994,7,6,26.6,#
1994,7,7,25.1,C
1994,7,8,26.1,C
1994,7,9,26.4,C
1994,7,10,27.1,#
1994,7,11,24.8,C
1994,7,12,23.4,#
1994,7,13,25.6,C
1994,7,14,24.5,#
1994,7,15,24.8,#
1994,7,16,25.8,C
1994,7,17,26.0,C
1994,7,18,26.1,#
1994,7,19,26.2,C
1994,7,20,25.9,#
1994,7,21,25.6,#
1994,7,22,24.0,#
1994,7,23,23.5,#
1994,7,24,23.7,C
1994,7,25,24.6,#
1994,7,26,***,#
1994,7,27,***,#
1994,7,28,25.8,#
1994,7,29,25.8,C
1994,7,30,26.2,C
1994,7,31,26.8,C
1994,8,1,26.6,C
1994,8,2,27.1,#
1994,8,3,26.6,C
1994,8,4,25.6,C
1994,8,5,24.7,#
1994,8,6,26.2,#
1994,8,7,24.7,#
1994,8,8,24.5,#
1994,8,9,25.2,C
1994,8,10,25.3,C
1994,8,11,27.5,#
1994,8,12,27.8,#
1994,8,13,26.3,C
1994,8,14,24.6,C
1994,8,15,24.9,C
1994,8,16,24.1,#
1994,8,17,23.9,#
1994,8,18,23.3,#
1994,8,19,24.9,C
1994,8,20,25.0,#
1994,8,21,26.3,C
1994,8,22,25.9,#
1994,8,23,26.3,C
1994,8,24,26.7,#
1994,8,25,26.4,C
1994,8,26,25.3,C
1994,8,27,24.9,C
1994,8,28,24.5,C
1994,8,29,25.3,C
1994,8,30,26.5,C
1994,8,31,26.3,C
1994,9,1,26.2,C
1994,9,2,27.2,#
1994,9,3,26.5,C
1994,9,4,27.1,#
1994,9,5,26.2,C
1994,9,6,26.2,#
1994,9,7,26.4,C
1994,9,8,26.9,C
1994,9,9,26.3,#
1994,9,10,27.1,C
1994,9,11,26.5,C
1994,9,12,25.1,C
1994,9,13,25.1,C
1994,9,14,24.6,#
1994,9,15,25.4,C
1994,9,16,24.9,C
1994,9,17,24.4,#
1994,9,18,22.5,C
1994,9,19,23.4,C
1994,9,20,23.9,#
1994,9,21,25.6,C
1994,9,22,25.6,C
1994,9,23,24.4,#
1994,9,24,23.8,#
1994,9,25,23.8,C
1994,9,26,23.7,#
1994,9,27,24.6,#
1994,9,28,23.4,#
1994,9,29,23.7,C
1994,9,30,23.7,C
1994,10,1,22.9,C
1994,10,2,23.3,C
1994,10,3,24.0,#
1994,10,4,23.3,C
1994,10,5,23.6,C
1994,10,6,24.2,C
1994,10,7,25.0,C
1994,10,8,24.5,C
1994,10,9,24.3,C
1994,10,10,25.4,C
1994,10,11,24.1,C
1994,10,12,23.7,C
1994,10,13,24.4,C
1994,10,14,25.0,C
1994,10,15,25.5,C
1994,10,16,26.0,C
1994,10,17,25.4,C
1994,10,18,26.3,C
1994,10,19,22.6,#
1994,10,20,19.7,C
1994,10,21,16.6,C
1994,10,22,15.7,C
1994,10,23,17.0,C
1994,10,24,18.1,#
1994,10,25,18.6,C
1994,10,26,19.8,C
1994,10,27,20.3,C
1994,10,28,19.6,C
1994,10,29,21.0,C
1994,10,30,19.0,C
1994,10,31,18.4,#
1994,11,1,19.3,C
1994,11,2,19.5,C
1994,11,3,19.6,C
1994,11,4,21.0,C
1994,11,5,20.1,C
1994,11,6,19.6,C
1994,11,7,19.5,#
1994,11,8,20.6,#
1994,11,9,19.9,#
1994,11,10,19.3,C
1994,11,11,20.0,C
1994,11,12,20.6,C
1994,11,13,21.0,C
1994,11,14,22.9,C
1994,11,15,22.4,C
1994,11,16,22.3,C
1994,11,17,21.1,#
1994,11,18,20.5,#
1994,11,19,20.9,#
1994,11,20,22.1,C
1994,11,21,21.0,C
1994,11,22,19.2,#
1994,11,23,19.2,#
1994,11,24,20.1,#
1994,11,25,20.6,#
1994,11,26,20.5,#
1994,11,27,19.7,#
1994,11,28,20.8,#
1994,11,29,21.3,#
1994,11,30,21.9,#
1994,12,1,22.3,#
1994,12,2,22.2,C
1994,12,3,18.6,#
1994,12,4,17.0,#
1994,12,5,16.1,#
1994,12,6,18.5,#
1994,12,7,19.4,#
1994,12,8,20.3,#
1994,12,9,21.7,#
1994,12,10,22.1,#
1994,12,11,21.8,C
1994,12,12,21.6,#
1994,12,13,15.4,#
1994,12,14,16.6,#
1994,12,15,16.5,#
1994,12,16,16.0,#
1994,12,17,16.6,#
1994,12,18,14.4,#
1994,12,19,16.3,#
1994,12,20,14.9,#
1994,12,21,13.0,#
1994,12,22,***,#
1994,12,23,***,#
1994,12,24,***,#
1994,12,25,***,#
1994,12,26,***,#
1994,12,27,***,#
1994,12,28,***,#
1994,12,29,***,#
1994,12,30,***,#
1994,12,31,***,#
1995,1,1,***,#
1995,1,2,***,#
1995,1,3,***,#
1995,1,4,***,#
1995,1,5,12.2,#
1995,1,6,10.6,#
1995,1,7,11.1,#
1995,1,8,14.3,#
1995,1,9,15.0,#
1995,1,10,17.0,C
1995,1,11,16.6,C
1995,1,12,14.1,C
1995,1,13,12.6,C
1995,1,14,13.5,C
1995,1,15,14.2,C
1995,1,16,14.0,#
1995,1,17,14.2,C
1995,1,18,16.3,C
1995,1,19,18.1,#
1995,1,20,17.5,C
1995,1,21,16.9,C
1995,1,22,18.6,C
1995,1,23,14.0,C
1995,1,24,12.6,#
1995,1,25,13.8,C
1995,1,26,13.9,C
1995,1,27,11.3,C
1995,1,28,10.1,C
1995,1,29,10.3,C
1995,1,30,10.3,C
1995,1,31,8.9,C
1995,2,1,11.0,C
1995,2,2,11.4,C
1995,2,3,12.5,#
1995,2,4,10.4,C
1995,2,5,10.3,C
1995,2,6,9.5,#
1995,2,7,11.6,C
1995,2,8,12.7,#
1995,2,9,13.9,C
1995,2,10,14.7,#
1995,2,11,14.6,C
1995,2,12,14.2,C
1995,2,13,15.6,#
1995,2,14,14.8,C
1995,2,15,14.1,C
1995,2,16,14.6,C
1995,2,17,14.0,C
1995,2,18,14.3,C
1995,2,19,14.8,C
1995,2,20,14.3,C
1995,2,21,13.3,#
1995,2,22,12.7,#
1995,2,23,12.4,#
1995,2,24,12.9,C
1995,2,25,12.4,#
1995,2,26,12.0,C
1995,2,27,11.9,C
1995,2,28,13.2,#
1995,3,1,13.1,C
1995,3,2,13.3,#
1995,3,3,15.9,C
1995,3,4,13.6,#
1995,3,5,12.9,C
1995,3,6,13.8,C
1995,3,7,15.4,#
1995,3,8,17.0,C
1995,3,9,17.5,#
1995,3,10,17.1,C
1995,3,11,15.0,C
1995,3,12,15.0,C
1995,3,13,14.3,#
1995,3,14,14.1,C
1995,3,15,15.9,C
1995,3,16,18.5,#
1995,3,17,12.8,#
1995,3,18,11.5,C
1995,3,19,14.6,C
1995,3,20,15.4,C
1995,3,21,15.7,#
1995,3,22,18.0,C
1995,3,23,18.9,C
1995,3,24,19.3,#
1995,3,25,15.6,C
1995,3,26,13.3,C
1995,3,27,14.4,#
1995,3,28,16.7,C
1995,3,29,18.1,#
1995,3,30,19.9,#
1995,3,31,16.6,C
1995,4,1,16.0,C
1995,4,2,15.5,#
1995,4,3,14.5,#
1995,4,4,15.0,C
1995,4,5,15.3,C
1995,4,6,18.4,C
1995,4,7,17.5,#
1995,4,8,17.0,C
1995,4,9,20.2,C
1995,4,10,19.3,C
1995,4,11,19.2,C
1995,4,12,19.4,C
1995,4,13,18.9,C
1995,4,14,21.9,C
1995,4,15,23.7,#
1995,4,16,23.9,C
1995,4,17,24.0,C
1995,4,18,23.3,#
1995,4,19,19.4,C
1995,4,20,17.9,C
1995,4,21,19.7,C
1995,4,22,21.7,#
1995,4,23,23.8,C
1995,4,24,22.9,C
1995,4,25,22.4,#
1995,4,26,22.9,C
1995,4,27,21.3,#
1995,4,28,23.1,#
1995,4,29,23.7,#
1995,4,30,24.1,#
1995,5,1,25.3,#
1995,5,2,24.3,#
1995,5,3,24.7,#
1995,5,4,21.0,#
1995,5,5,19.5,C
1995,5,6,20.9,#
1995,5,7,21.5,C
1995,5,8,22.0,#
1995,5,9,23.2,C
1995,5,10,22.4,C
1995,5,11,23.2,C
1995,5,12,23.1,C
1995,5,13,22.4,C
1995,5,14,23.0,C
1995,5,15,21.2,#
1995,5,16,20.0,#
1995,5,17,21.0,C
1995,5,18,22.7,C
1995,5,19,24.8,#
1995,5,20,26.5,C
1995,5,21,26.5,C
1995,5,22,22.1,#
1995,5,23,21.7,C
1995,5,24,21.8,C
1995,5,25,23.9,#
1995,5,26,25.7,#
1995,5,27,26.7,#
1995,5,28,26.6,C
1995,5,29,26.0,#
1995,5,30,26.3,C
1995,5,31,27.1,C
1995,6,1,26.6,C
1995,6,2,26.9,C
1995,6,3,26.7,C
1995,6,4,26.1,C
1995,6,5,26.1,C
1995,6,6,26.4,C
1995,6,7,25.5,#
1995,6,8,25.2,C
1995,6,9,24.9,#
1995,6,10,25.0,#
1995,6,11,24.2,C
1995,6,12,24.3,C
1995,6,13,25.0,#
1995,6,14,26.1,#
1995,6,15,***,#
1995,6,16,***,#
1995,6,17,***,#
1995,6,18,***,#
1995,6,19,***,#
1995,6,20,***,#
1995,6,21,***,#
1995,6,22,***,#
1995,6,23,***,#
1995,6,24,***,#
1995,6,25,***,#
1995,6,26,***,#
1995,6,27,***,#
1995,6,28,***,#
1995,6,29,***,#
1995,6,30,***,#
1995,7,1,***,#
1995,7,2,***,#
1995,7,3,***,#
1995,7,4,24.3,#
1995,7,5,25.2,#
1995,7,6,26.3,#
1995,7,7,26.3,#
1995,7,8,26.0,C
1995,7,9,25.9,#
1995,7,10,26.2,#
1995,7,11,27.4,#
1995,7,12,26.0,#
1995,7,13,24.6,C
1995,7,14,24.1,#
1995,7,15,23.8,#
1995,7,16,24.0,C
1995,7,17,25.4,#
1995,7,18,25.7,#
1995,7,19,26.6,#
1995,7,20,27.2,#
1995,7,21,28.1,C
1995,7,22,28.3,#
1995,7,23,28.2,C
1995,7,24,27.3,#
1995,7,25,25.4,#
1995,7,26,25.7,#
1995,7,27,24.1,#
1995,7,28,24.5,#
1995,7,29,26.1,C
1995,7,30,27.3,C
1995,7,31,25.4,#
1995,8,1,26.0,C
1995,8,2,26.1,#
1995,8,3,23.4,#
1995,8,4,23.2,#
1995,8,5,23.8,C
1995,8,6,24.1,C
1995,8,7,24.4,C
1995,8,8,25.3,C
1995,8,9,25.1,#
1995,8,10,25.9,C
1995,8,11,24.3,#
1995,8,12,23.1,#
1995,8,13,23.0,#
1995,8,14,22.4,#
1995,8,15,22.4,#
1995,8,16,25.3,C
1995,8,17,24.6,C
1995,8,18,24.7,C
1995,8,19,25.9,#
1995,8,20,26.3,C
1995,8,21,26.6,#
1995,8,22,27.0,C
1995,8,23,26.0,#
1995,8,24,27.0,C
1995,8,25,26.8,C
1995,8,26,25.1,C
1995,8,27,24.8,C
1995,8,28,25.6,C
1995,8,29,25.2,#
1995,8,30,26.4,C
1995,8,31,24.5,#
1995,9,1,24.6,#
1995,9,2,25.8,C
1995,9,3,25.8,C
1995,9,4,25.2,#
1995,9,5,26.4,C
1995,9,6,26.2,#
1995,9,7,26.0,#
1995,9,8,26.4,C
1995,9,9,25.6,C
1995,9,10,25.3,#
1995,9,11,26.1,C
1995,9,12,26.0,#
1995,9,13,26.6,C
1995,9,14,27.0,C
1995,9,15,26.8,#
1995,9,16,25.6,#
1995,9,17,24.6,C
1995,9,18,25.2,C
1995,9,19,22.5,#
1995,9,20,22.0,#
1995,9,21,22.0,C
1995,9,22,23.1,C
1995,9,23,23.6,C
1995,9,24,23.3,C
1995,9,25,23.7,#
1995,9,26,24.1,#
1995,9,27,25.2,#
1995,9,28,25.2,#
1995,9,29,25.6,C
1995,9,30,25.6,#
1995,10,1,25.0,#
1995,10,2,23.7,#
1995,10,3,24.7,#
1995,10,4,25.3,#
1995,10,5,24.0,#
1995,10,6,22.9,#
1995,10,7,22.0,#
1995,10,8,22.3,#
1995,10,9,23.1,#
1995,10,10,23.0,#
1995,10,11,24.7,#
1995,10,12,24.5,#
1995,10,13,24.6,#
1995,10,14,24.1,C
1995,10,15,22.1,#
1995,10,16,23.5,#
1995,10,17,23.1,#
1995,10,18,22.7,#
1995,10,19,22.2,#
1995,10,20,23.0,#
1995,10,21,23.5,#
1995,10,22,23.6,C